Terminal Aerodrome Forecast
Issued by NWS Boston, MA

Home | Current Version | Previous Version | Text Only | Print | Product List | Glossary On
Versions: 1 2 3 4 5 6 7 8 9 10 11 12 13 14 15 16 17 18 19 20 21 22 23 24 25 26 27 28 29 30 31 32 33 34 35 36 37 38 39
000
FTUS41 KBOX 080100 AAC
TAFORH
TAF AMD
KORH 080100Z 0801/0824 22010KT P6SM BKN012 OVC080
     FM080600 23010KT 5SM BR FEW010 BKN020
     FM081300 26008KT P6SM OVC050
     FM081500 28010KT P6SM -SHRA OVC040=

USA.gov is the U.S. government's official web portal to all federal, state and local government web resources and services.